カタログに戻る

COSMOS 1275 DEB

運用中PO
NORAD 42140·DEBRIS·🇷🇺 Russia

打ち上げ Jun 4, 1981 から Plesetsk Cosmodrome

Loading…

次のパス (今後24時間)

TLE

経年Source: Space-Track

元期: Sep 7, 2026, 17:41 UTC

1 42140U 81053RC  26250.73690570  .00000494  00000-0  66788-3 0  9995
2 42140  83.1339  66.4766 0198277 333.2029  25.8974 13.50237730596669

AllMySatでCOSMOS 1275 DEBをリアルタイム追跡

Download on the App Store